Location: Casteau
(50.5142°N, 4.0161°E)
Time: 03:59:56
(UTC+00:00)

Transit 2A - Pass Details

Date: 02 August 2021
Orbit: 594 x 964 km, 66.7° (Epoch: 21 September)

Event Time Altitude Azimuth Distance (km) Brightness Sun altitude
Rises 08:06:09 0° 267° (W) 2,905 8.5 34.9°
Reaches altitude 10° 08:08:52 10° 284° (WNW) 2,044 7.8 35.4°
Maximum altitude 08:12:19 20° 333° (NNW) 1,533 7.4 35.9°
Drops below altitude 10° 08:16:01 10° 21° (NNE) 2,200 8.5 36.5°
Sets 08:19:04 0° 38° (NE) 3,199 9.4 36.9°
